sat.trackr.live / text

‹ back to catalog

STARLINK-6040

NORAD 56809 · 2023-078AU

PAYLOAD ACTIVE UNKNOWN

§ Identity

Operator
Country
US
Launch date
2023-05-31
Launch site
AFWTR
Launch vehicle
Mass (kg)
RCS (m²)

Purposes: comms

External: N2YO · Heavens-Above · Gunter

§ Orbital elements

Epoch: 2026-05-25T03:03:42.118848Z

Period
96.11 min
Inclination
69.9985°
Eccentricity
0.0003660
Mean motion
14.98330729 rev/d
Perigee alt
569.5 km
Apogee alt
574.6 km
Semi-major
6,950.2 km
B*
-1.5692e-5
RAAN
151.5772°
Arg perigee
264.8075°
Mean anomaly
95.2667°
Rev number
16,413

§ Raw data

STARLINK-60401 56809U 23078AU  26145.12757082 -.00000280  00000+0 -15692-4 0  99962 56809  69.9985 151.5772 0003660 264.8075  95.2667 14.98330729164137

JSON: /api/v1/satellites/56809 · /tle

For live sub-satellite position, see the globe view (requires WebGL).

§ Visibility from observer

Set your observer location to see the next 7 days of passes ≥ 10°. The values pass through the URL so the page stays shareable.

No JS? Fill the form by hand. The geolocation button needs JavaScript.